Location: Clarks Summit,Pa.
(41.5000°N, 75.6000°W)
Time: 08:59:55
(UTC-05:00)

BlueWalker 3 - Visible Passes

Search period start: 30 November 2022 00:00
Search period end: 10 December 2022 00:00
Orbit: 500 x 519 km, 53.2° (Epoch: 29 November)

Date Brightness Start Highest point End Pass type
(mag) Time Alt. Az. Time Alt. Az. Time Alt. Az.
30 Nov 4.1 17:58:01 10° NW 18:00:26 16° N 18:01:46 14° NNE visible
01 Dec 4.1 17:39:43 10° NW 17:42:06 15° N 17:44:06 11° NNE visible
02 Dec 4.1 17:21:24 10° NW 17:23:46 15° N 17:26:08 10° NNE visible
02 Dec 4.7 19:00:51 10° NNW 19:01:16 12° NNW 19:01:16 12° NNW visible
03 Dec 4.1 17:03:05 10° NW 17:05:26 15° N 17:07:46 10° NNE visible
03 Dec 4.3 18:42:27 10° NNW 18:43:38 15° NNW 18:43:38 15° NNW visible
04 Dec 3.9 18:24:03 10° NNW 18:26:02 18° N 18:26:02 18° N visible
05 Dec 3.6 18:05:38 10° NNW 18:08:29 20° NNE 18:08:29 20° NNE visible
06 Dec 3.5 17:47:13 10° NNW 17:50:12 20° NNE 17:51:00 19° NE visible
06 Dec 4.9 19:25:29 10° NW 19:25:50 12° NW 19:25:50 12° NW visible
07 Dec 3.5 17:28:47 10° NNW 17:31:49 21° NNE 17:33:37 16° NE visible
07 Dec 4.2 19:07:04 10° NW 19:08:28 21° NW 19:08:28 21° NW visible
08 Dec 3.4 17:10:21 10° NNW 17:13:26 22° NNE 17:16:22 11° ENE visible
08 Dec 3.0 18:48:39 10° NW 18:51:14 40° NW 18:51:14 40° NW visible
09 Dec 1.8 18:30:13 10° NW 18:34:08 88° SW 18:34:10 87° S visible
